Regional Weather Roundup
Issued by NWS

Home | Current Version | Previous Version | Text Only | Print | Product List | Glossary On
Versions: 1 2 3 4 5 6 7 8 9 10 11 12 13 14 15 16 17 18 19 20 21 22 23 24 25 26 27 28 29 30 31 32 33 34 35 36 37 38 39 40 41 42 43 44 45 46 47 48 49 50
000
ASUS45 KCYS 211910
RWRWY

WYOMING REGIONAL WEATHER ROUNDUP
NATIONAL WEATHER SERVICE CHEYENNE WY
1200 PM MST SUN DEC 21 2014

NOTE:  "FAIR" INDICATES FEW OR NO CLOUDS BELOW 12,000 FEET
WITH NO SIGNIFICANT WEATHER AND/OR OBSTRUCTIONS TO VISIBILITY.

WYZ001-212000-
YELLOWSTONE NATIONAL PARK

CITY           SKY/WX    TMP DP  RH WIND       PRES   REMARKS
LK YELLOWSTONE   N/A     32  26  78 W15G22    29.62F WCI  22
W YELLOWSTONE  NOT AVBL

$$
WYZ002>013-054>058-071-098>099-212000-
NORTHERN WYOMING

CITY           SKY/WX    TMP DP  RH WIND       PRES   REMARKS
JACKSON        CLOUDY    39  34  81 SW21      29.63F BLWGSNOWWCI  29
CODY           FAIR      43  30  61 W8        29.47F
GREYBULL       PTSUNNY   32  24  72 S10       29.52F WCI  24
WORLAND        PTSUNNY   29  24  82 W3        29.52F
SHERIDAN       FAIR      40  33  76 SE3       29.41F
BUFFALO        PTSUNNY   40  33  76 CALM      29.46F
GILLETTE       CLOUDY    44  28  53 W12       29.44F
HULETT           N/A    N/A N/A N/A MISG        N/A
NEWCASTLE      FAIR      43  28  56 CALM      29.46F

$$
WYZ014>020-022>026-101>103-212000-
CENTRAL WYOMING

CITY           SKY/WX    TMP DP  RH WIND       PRES   REMARKS
BIG PINEY      LGT SNOW  34  29  82 W22G29    29.69F WCI  22
PINEDALE       LGT SNOW  32  32 100 S5        29.67F WCI  27
DUBOIS         NOT AVBL
LANDER         FAIR      35  24  64 VRB7      29.54F WCI  29
RIVERTON       FAIR      26  21  81 E6        29.56F WCI  19
CASPER         PTSUNNY   38  30  73 SW12      29.54F WCI  30
DOUGLAS        CLOUDY    44  31  60 W32G41    29.49S

$$
WYZ021-027>030-104>119-212000-
SOUTHERN WYOMING

CITY           SKY/WX    TMP DP  RH WIND       PRES   REMARKS
EVANSTON       SNOW      33  32  96 SW17      29.86F VSB 1/4 WCI  22
KEMMERER       LGT SNOW  34  32  93 SW23G30   29.79S WCI  22
FORT BRIDGER   CLOUDY    38  35  87 W32G44    29.83F WCI  25
ROCK SPRINGS   FAIR      38  31  76 W36G46    29.71F WCI  25
DIXON          CLOUDY    33  30  87 S21G30    29.79F WCI  21
RAWLINS        LGT SNOW  34  29  82 SW30G36   29.68F WCI  20
SARATOGA       CLOUDY    34  30  86 SW30G37   29.68F HAZE    WCI  20
LARAMIE        CLOUDY    36  25  64 W24       29.60F WCI  24
CHEYENNE       FAIR      41  25  53 W24G38    29.56F
TORRINGTON     FAIR     N/A N/A N/A W28G44    29.48F
PINE BLUFFS    FAIR      43  23  45 SW14      29.58S

$$


USA.gov is the U.S. government's official web portal to all federal, state and local government web resources and services.